Time,TemperatureF,DewpointF,PressureIn,WindDirection,WindDirectionDegrees,WindSpeedMPH,WindSpeedGustMPH,Humidity,HourlyPrecipIn,Conditions,Clouds,dailyrainin,SoftwareType,DateUTC
2013-10-21 00:08:00,47.6,30.3,30.19,WNW,302,0.0,6.0,51,0.00,,,0.00,Wunderground v.1.15,2013-10-21 04:08:00,
2013-10-21 00:43:00,48.2,29.9,30.19,WNW,302,1.0,1.0,49,0.00,,,0.00,Wunderground v.1.15,2013-10-21 04:43:00,
2013-10-21 01:18:00,47.1,29.4,30.19,WNW,302,0.0,3.0,50,0.00,,,0.00,Wunderground v.1.15,2013-10-21 05:18:00,
2013-10-21 01:33:00,46.8,30.1,30.19,WNW,302,1.0,1.0,52,0.00,,,0.00,Wunderground v.1.15,2013-10-21 05:33:00,
2013-10-21 02:17:00,43.8,30.4,30.19,WNW,302,1.0,4.0,59,0.00,,,0.00,Wunderground v.1.15,2013-10-21 06:17:00,
2013-10-21 02:27:00,43.8,30.4,30.19,WNW,302,1.0,1.0,59,0.00,,,0.00,Wunderground v.1.15,2013-10-21 06:27:00,
2013-10-21 02:37:00,44.1,30.3,30.19,WNW,302,1.0,4.0,58,0.00,,,0.00,Wunderground v.1.15,2013-10-21 06:37:00,
2013-10-21 03:12:00,43.9,30.1,30.18,WNW,302,0.0,4.0,58,0.00,,,0.00,Wunderground v.1.15,2013-10-21 07:12:00,
2013-10-21 03:27:00,42.5,30.8,30.19,WNW,302,1.0,1.0,63,0.00,,,0.00,Wunderground v.1.15,2013-10-21 07:27:00,
2013-10-21 03:37:00,42.8,29.9,30.19,WNW,302,0.0,3.0,60,0.00,,,0.00,Wunderground v.1.15,2013-10-21 07:37:00,
2013-10-21 03:52:00,43.2,29.8,30.19,WNW,302,0.0,3.0,59,0.00,,,0.00,Wunderground v.1.15,2013-10-21 07:52:00,
2013-10-21 04:12:00,42.9,30.4,30.18,WNW,302,0.0,3.0,61,0.00,,,0.00,Wunderground v.1.15,2013-10-21 08:12:00,
2013-10-21 04:22:00,42.6,30.5,30.19,WNW,302,1.0,3.0,62,0.00,,,0.00,Wunderground v.1.15,2013-10-21 08:22:00,
2013-10-21 05:12:00,41.1,30.6,30.20,WNW,302,2.0,3.0,66,0.00,,,0.00,Wunderground v.1.15,2013-10-21 09:12:00,
2013-10-21 05:27:00,41.3,30.4,30.20,WNW,302,0.0,3.0,65,0.00,,,0.00,Wunderground v.1.15,2013-10-21 09:27:00,
2013-10-21 05:37:00,41.5,30.2,30.20,WNW,302,0.0,4.0,64,0.00,,,0.00,Wunderground v.1.15,2013-10-21 09:37:00,
2013-10-21 07:32:00,39.2,30.6,30.23,WNW,302,0.0,4.0,71,0.00,,,0.00,Wunderground v.1.15,2013-10-21 11:32:00,
2013-10-21 08:22:00,40.8,31.8,30.23,WNW,302,0.0,4.0,70,0.00,,,0.00,Wunderground v.1.15,2013-10-21 12:22:00,
2013-10-21 08:47:00,43.6,34.1,30.23,WNW,302,0.0,3.0,69,0.00,,,0.00,Wunderground v.1.15,2013-10-21 12:47:00,
2013-10-21 09:07:00,45.8,35.5,30.23,WNW,302,0.0,0.0,67,0.00,,,0.00,Wunderground v.1.15,2013-10-21 13:07:00,
2013-10-21 09:22:00,43.6,33.4,30.21,WNW,302,1.0,1.0,67,0.00,,,0.00,Wunderground v.1.15,2013-10-21 13:22:00,
2013-10-21 09:57:00,49.5,37.8,30.21,WNW,302,0.0,4.0,64,0.00,,,0.00,Wunderground v.1.15,2013-10-21 13:57:00,
2013-10-21 10:32:00,52.6,38.2,30.19,WNW,302,3.0,6.0,58,0.00,,,0.00,Wunderground v.1.15,2013-10-21 14:32:00,
2013-10-21 11:22:00,55.1,38.3,30.17,East,95,4.0,6.0,53,0.00,,,0.00,Wunderground v.1.15,2013-10-21 15:22:00,
2013-10-21 12:13:00,57.2,41.2,30.15,SE,128,3.0,9.0,55,0.00,,,0.00,Wunderground v.1.15,2013-10-21 16:13:00,
2013-10-21 13:18:00,61.6,41.2,30.11,ESE,120,3.0,11.0,47,0.00,,,0.00,Wunderground v.1.15,2013-10-21 17:18:00,
2013-10-21 14:33:00,64.7,39.8,30.07,SE,128,3.0,14.0,40,0.00,,,0.00,Wunderground v.1.15,2013-10-21 18:33:00,
2013-10-21 15:08:00,65.5,37.8,30.05,ESE,123,3.0,14.0,36,0.00,,,0.00,Wunderground v.1.15,2013-10-21 19:08:00,
2013-10-21 15:18:00,66.1,37.6,30.05,SE,134,4.0,4.0,35,0.00,,,0.00,Wunderground v.1.15,2013-10-21 19:18:00,
2013-10-21 17:23:00,64.7,37.8,30.02,SE,124,0.0,11.0,37,0.00,,,0.00,Wunderground v.1.15,2013-10-21 21:23:00,
2013-10-21 17:48:00,65.8,38.8,30.02,SE,124,0.0,9.0,37,0.00,,,0.00,Wunderground v.1.15,2013-10-21 21:48:00,
2013-10-21 18:28:00,61.2,40.2,30.04,SE,124,1.0,9.0,46,0.00,,,0.00,Wunderground v.1.15,2013-10-21 22:28:00,
2013-10-21 18:53:00,60.9,40.0,30.05,SE,124,0.0,6.0,46,0.00,,,0.00,Wunderground v.1.15,2013-10-21 22:53:00,
2013-10-21 19:13:00,59.5,39.8,30.05,SE,124,0.0,6.0,48,0.00,,,0.00,Wunderground v.1.15,2013-10-21 23:13:00,
2013-10-21 19:48:00,58.7,39.6,30.06,SE,124,0.0,4.0,49,0.00,,,0.00,Wunderground v.1.15,2013-10-21 23:48:00,
2013-10-21 20:58:00,57.6,40.6,30.04,SE,124,0.0,3.0,53,0.00,,,0.00,Wunderground v.1.15,2013-10-22 00:58:00,
2013-10-21 21:33:00,57.5,40.0,30.03,ESE,122,0.0,5.0,52,0.00,,,0.00,Wunderground v.1.15,2013-10-22 01:33:00,
2013-10-21 22:08:00,56.7,39.7,30.02,ESE,121,2.0,2.0,53,0.00,,,0.00,Wunderground v.1.15,2013-10-22 02:08:00,
2013-10-21 22:43:00,56.3,38.9,30.02,NE,50,2.0,2.0,52,0.00,,,0.00,Wunderground v.1.15,2013-10-22 02:43:00,
2013-10-21 23:28:00,55.1,36.3,30.01,NE,43,1.0,1.0,49,0.00,,,0.00,Wunderground v.1.15,2013-10-22 03:28:00,
2013-10-21 23:53:00,55.1,35.7,30.00,NNE,31,0.0,7.0,48,0.00,,,0.00,Wunderground v.1.15,2013-10-22 03:53:00,
2013-10-21 23:58:00,55.0,35.7,30.00,NNE,31,0.0,7.0,48,0.00,,,0.00,Wunderground v.1.15,2013-10-22 03:58:00,